Las Cruces, NM

12:18 PM MDT on May 24, 2017 (GMT -0600)
Las Cruces International

Weather History for KLRU - June, 2012

Change the Weather History Date:

Saturday, June 16, 2012

  Actual Average Record
Temperature  
Mean Temperature 78 °F -  
Max Temperature 91 °F 91 °F 105 °F (2008)
Min Temperature 64 °F 63 °F 53 °F (1997)
Cooling Degree Days 12    
Growing Degree Days 28 (Base 50)    
Moisture  
Dew Point 42 °F    
Average Humidity 30    
Maximum Humidity 49    
Minimum Humidity 12    
Precipitation  
Precipitation 0.00 in - - ()
Sea Level Pressure  
Sea Level Pressure 30.08 in    
Wind  
Wind Speed 7 mph (ESE)    
Max Wind Speed 17 mph    
Max Gust Speed 25 mph    
Visibility 10 miles    
Events      
Averages and records for this station are not official NWS values.
T = Trace of Precipitation, MM = Missing Value Source: NWS Daily Summary

Daily Weather History Graph

Daily Weather History Graph

Search for Another Location

Airport or City:

Trip Planner

Search our weather history database for the weather conditions in past years. The results will help you decide how hot, cold, wet, or windy it might be!

Date:

Astronomy

Jun. 16, 2012 Rise Set
Actual Time 6:00 AM MDT 8:16 PM MDT
Civil Twilight 5:32 AM MDT 8:44 PM MDT
Nautical Twilight 4:57 AM MDT 9:19 PM MDT
Astronomical Twilight 4:19 AM MDT 9:57 PM MDT
Moon 3:47 AM MDT (6/16) 5:57 PM MDT (6/16)
Length of Visible Light 15h 12m
Length of Day
14h 15m
Waning Crescent, 7% of the Moon is Illuminated
Jun 16
Waning Crescent
Jun 19
New
Jun 26
First Quarter
Jul 3
Full
Jul 10
Last Quarter

Hourly Weather History & Observations

Time (MDT) Temp. Dew Point Humidity Pressure Visibility Wind Dir Wind Speed Gust Speed Precip Events Conditions
12:15 AM 73.4 °F 42.8 °F 33% 30.07 in 10.0 mi SSE 6.9 mph - N/A   Clear
12:35 AM 71.6 °F 42.8 °F 35% 30.07 in 10.0 mi South 8.1 mph - N/A   Clear
12:55 AM 71.6 °F 42.8 °F 35% 30.06 in 10.0 mi SSE 10.4 mph - N/A   Clear
1:15 AM 71.6 °F 42.8 °F 35% 30.06 in 10.0 mi SSE 10.4 mph - N/A   Clear
1:35 AM 71.6 °F 42.8 °F 35% 30.07 in 10.0 mi SSE 9.2 mph - N/A   Clear
1:55 AM 71.6 °F 44.6 °F 38% 30.07 in 10.0 mi SSE 9.2 mph - N/A   Clear
2:15 AM 71.6 °F 44.6 °F 38% 30.07 in 10.0 mi South 10.4 mph - N/A   Clear
2:35 AM 71.6 °F 46.4 °F 41% 30.07 in 10.0 mi South 9.2 mph - N/A   Clear
2:55 AM 69.8 °F 46.4 °F 43% 30.07 in 10.0 mi SW 4.6 mph - N/A   Clear
3:15 AM 69.8 °F 46.4 °F 43% 30.07 in 10.0 mi WSW 4.6 mph - N/A   Clear
3:35 AM 68.0 °F 46.4 °F 46% 30.07 in 10.0 mi Calm Calm - N/A   Clear
3:55 AM 68.0 °F 46.4 °F 46% 30.06 in 10.0 mi WSW 5.8 mph - N/A   Clear
4:15 AM 68.0 °F 46.4 °F 46% 30.06 in 10.0 mi West 8.1 mph - N/A   Clear
4:35 AM 68.0 °F 46.4 °F 46% 30.07 in 10.0 mi NNW 3.5 mph - N/A   Clear
4:55 AM 68.0 °F 46.4 °F 46% 30.05 in 10.0 mi West 4.6 mph - N/A   Clear
5:15 AM 66.2 °F 44.6 °F 46% 30.07 in 10.0 mi North 3.5 mph - N/A   Clear
5:35 AM 64.4 °F 44.6 °F 49% 30.07 in 10.0 mi NNW 4.6 mph - N/A   Clear
5:55 AM 64.4 °F 44.6 °F 49% 30.07 in 10.0 mi North 5.8 mph - N/A   Clear
6:15 AM 66.2 °F 44.6 °F 46% 30.08 in 10.0 mi North 4.6 mph - N/A   Clear
6:35 AM 66.2 °F 44.6 °F 46% 30.08 in 10.0 mi North 5.8 mph - N/A   Clear
6:55 AM 68.0 °F 44.6 °F 43% 30.08 in 10.0 mi NW 5.8 mph - N/A   Clear
7:15 AM 69.8 °F 46.4 °F 43% 30.09 in 10.0 mi Calm Calm - N/A   Clear
7:35 AM 71.6 °F 46.4 °F 41% 30.10 in 10.0 mi East 4.6 mph - N/A   Scattered Clouds
7:55 AM 71.6 °F 46.4 °F 41% 30.11 in 10.0 mi ENE 3.5 mph - N/A   Scattered Clouds
8:15 AM 71.6 °F 46.4 °F 41% 30.11 in 10.0 mi ENE 4.6 mph - N/A   Clear
8:35 AM 73.4 °F 46.4 °F 38% 30.12 in 10.0 mi East 5.8 mph - N/A   Clear
8:55 AM 75.2 °F 44.6 °F 34% 30.12 in 10.0 mi ENE 3.5 mph - N/A   Clear
9:15 AM 77.0 °F 44.6 °F 32% 30.12 in 10.0 mi Calm Calm - N/A   Clear
9:35 AM 77.0 °F 44.6 °F 32% 30.12 in 10.0 mi Calm Calm - N/A   Clear
9:55 AM 77.0 °F 42.8 °F 29% 30.12 in 10.0 mi Calm Calm - N/A   Clear
10:15 AM 77.0 °F 42.8 °F 29% 30.12 in 10.0 mi Calm Calm - N/A   Clear
10:35 AM 80.6 °F 44.6 °F 28% 30.13 in 10.0 mi South 5.8 mph - N/A   Clear
10:55 AM 80.6 °F 42.8 °F 26% 30.12 in 10.0 mi SW 5.8 mph - N/A   Clear
11:15 AM 82.4 °F 42.8 °F 25% 30.12 in 10.0 mi SSW 9.2 mph - N/A   Clear
11:35 AM 86.0 °F 42.8 °F 22% 30.12 in 10.0 mi ESE 9.2 mph - N/A   Clear
11:55 AM 86.0 °F 41.0 °F 20% 30.12 in 10.0 mi SSE 11.5 mph - N/A   Clear
12:15 PM 86.0 °F 41.0 °F 20% 30.12 in 10.0 mi East 8.1 mph - N/A   Clear
12:35 PM 87.8 °F 42.8 °F 21% 30.11 in 10.0 mi SE 5.8 mph - N/A   Clear
12:55 PM 89.6 °F 39.2 °F 17% 30.10 in 10.0 mi East 11.5 mph - N/A   Clear
1:15 PM 89.6 °F 37.4 °F 16% 30.10 in 10.0 mi ENE 6.9 mph - N/A   Clear
1:35 PM 87.8 °F 37.4 °F 17% 30.09 in 10.0 mi ESE 11.5 mph - N/A   Clear
1:55 PM 89.6 °F 37.4 °F 16% 30.08 in 10.0 mi ENE 10.4 mph 17.3 mph N/A   Clear
2:15 PM 89.6 °F 33.8 °F 14% 30.08 in 10.0 mi East 9.2 mph - N/A   Clear
2:35 PM 91.4 °F 33.8 °F 13% 30.07 in 10.0 mi East 11.5 mph 16.1 mph N/A   Clear
2:55 PM 91.4 °F 32.0 °F 12% 30.06 in 10.0 mi East 8.1 mph - N/A   Clear
3:15 PM 91.4 °F 33.8 °F 13% 30.05 in 10.0 mi SE 10.4 mph 16.1 mph N/A   Clear
3:35 PM 91.4 °F 33.8 °F 13% 30.04 in 10.0 mi ESE 9.2 mph 24.2 mph N/A   Clear
3:55 PM 91.4 °F 33.8 °F 13% 30.04 in 10.0 mi East 4.6 mph 10.4 mph N/A   Scattered Clouds
4:15 PM 91.4 °F 33.8 °F 13% 30.03 in 10.0 mi ESE 9.2 mph - N/A   Scattered Clouds
4:35 PM 89.6 °F 35.6 °F 15% 30.02 in 10.0 mi SSE 5.8 mph - N/A   Scattered Clouds
4:55 PM 89.6 °F 35.6 °F 15% 30.02 in 10.0 mi ESE 11.5 mph 19.6 mph N/A   Clear
5:15 PM 91.4 °F 37.4 °F 15% 30.02 in 10.0 mi ESE 15.0 mph 20.7 mph N/A   Scattered Clouds
5:35 PM 87.8 °F 39.2 °F 18% 30.01 in 10.0 mi East 13.8 mph 18.4 mph N/A   Overcast
5:55 PM 87.8 °F 37.4 °F 17% 30.02 in 10.0 mi ESE 11.5 mph - N/A   Overcast
6:15 PM 87.8 °F 35.6 °F 16% 30.02 in 10.0 mi East 10.4 mph 16.1 mph N/A   Overcast
6:35 PM 87.8 °F 37.4 °F 17% 30.03 in 10.0 mi ENE 8.1 mph - N/A   Mostly Cloudy
6:55 PM 86.0 °F 37.4 °F 18% 30.03 in 10.0 mi ESE 6.9 mph - N/A   Scattered Clouds
7:15 PM 86.0 °F 39.2 °F 19% 30.03 in 10.0 mi East 9.2 mph - N/A   Scattered Clouds
7:35 PM 82.4 °F 41.0 °F 23% 30.04 in 10.0 mi East 5.8 mph - N/A   Clear
7:55 PM 82.4 °F 39.2 °F 21% 30.06 in 10.0 mi East 6.9 mph - N/A   Clear
8:15 PM 82.4 °F 42.8 °F 25% 30.07 in 10.0 mi ESE 17.3 mph 25.3 mph N/A   Clear
8:35 PM 80.6 °F 44.6 °F 28% 30.07 in 10.0 mi ESE 12.7 mph 19.6 mph N/A   Clear
8:55 PM 78.8 °F 44.6 °F 30% 30.08 in 10.0 mi ESE 13.8 mph - N/A   Clear
9:15 PM 78.8 °F 44.6 °F 30% 30.10 in 10.0 mi ESE 5.8 mph - N/A   Clear
9:35 PM 78.8 °F 44.6 °F 30% 30.10 in 10.0 mi Calm Calm - N/A   Clear
9:55 PM 77.0 °F 44.6 °F 32% 30.11 in 10.0 mi Calm Calm - N/A   Clear
10:15 PM 77.0 °F 42.8 °F 29% 30.12 in 10.0 mi Calm Calm - N/A   Clear
10:35 PM 73.4 °F 42.8 °F 33% 30.12 in 10.0 mi Calm Calm - N/A   Clear
10:55 PM 73.4 °F 42.8 °F 33% 30.12 in 10.0 mi WSW 3.5 mph - N/A   Clear
11:15 PM 75.2 °F 42.8 °F 31% 30.12 in 10.0 mi SW 4.6 mph - N/A   Clear
11:35 PM 73.4 °F 42.8 °F 33% 30.14 in 10.0 mi WSW 5.8 mph - N/A   Clear
11:55 PM 71.6 °F 42.8 °F 35% 30.14 in 10.0 mi WSW 4.6 mph - N/A   Clear